Wind_Speed
3 3 3 5 7 8 10 11 10 5 5 5 3 3 4 5 6 5 5 5 1 1 6 6 4 7 11 7 5 5 5 8 6 6 6 4 4 4 5 5 5 5 5 10 15 18 19 20 20 21 21 22 24 25 25 26 26 25 25 24 24 23 20 19 19 18 19 20 21 22 24 25 25 23 23 23 22 21 20 19 18 18 17 16 14 14
4 4 8 11 9 7 7 9 7 3 3 3 2 2 4 5 6 7 6 5 1 4 5 1 2 8 10 4 6 4 6 6 3 6 5 5 5 4 5 5 5 4 5 9 14 18 20 20 21 22 22 23 25 26 26 26 26 26 26 26 25 24 23 23 22 20 21 21 21 23 25 25 25 24 24 25 24 22 21 20 19 18 17 16 16 15
2 4 12 10 4 3 2 4 5 3 2 3 2 2 4 4 4 7 6 5 0 4 3 1 3 8 7 3 6 5 6 4 3 5 5 4 5 4 4 4 4 4 5 7 10 15 19 20 21 22 22 24 24 25 26 26 26 26 26 26 25 24 24 24 24 23 23 22 21 22 23 23 25 26 25 24 23 22 21 21 21 20 18 17 17 16
3 7 11 5 5 4 2 3 7 3 2 3 3 3 4 3 1 4 5 5 2 1 2 2 3 6 4 3 5 5 5 5 6 7 6 5 5 4 4 4 5 4 5 5 7 11 15 18 20 21 21 22 24 26 26 26 26 27 26 25 24 24 23 23 23 23 23 22 21 22 22 22 24 24 23 22 22 21 21 22 21 21 20 19 18 17
7 8 2 5 6 6 5 4 6 5 1 3 5 6 5 4 5 6 4 5 4 3 2 1 3 5 4 3 2 3 4 5 5 6 7 5 4 4 4 5 5 3 4 5 5 8 12 15 17 19 21 23 25 26 26 26 26 26 26 25 23 22 22 21 20 19 18 18 18 18 19 20 22 23 23 24 25 24 23 22 21 20 19 18 18 18
9 6 4 5 3 5 5 6 5 7 3 4 6 9 9 8 8 6 2 5 4 4 3 2 3 5 4 2 3 3 3 4 3 4 6 4 4 4 4 4 4 3 3 4 5 7 10 13 16 20 22 23 24 24 24 25 25 26 25 24 23 23 21 20 18 17 15 16 17 18 20 22 24 27 27 27 26 25 24 22 20 19 18 18 18 18
5 4 3 5 4 6 6 5 5 7 5 3 5 8 10 7 6 5 1 2 0 3 3 2 1 5 5 1 4 5 4 4 2 3 4 3 4 4 3 3 3 3 4 4 6 7 10 12 15 18 20 20 21 20 22 24 25 26 26 25 25 24 23 21 20 18 18 20 22 24 26 26 27 28 26 24 23 22 21 19 19 19 18 18 18 18
4 2 2 5 5 5 5 5 6 7 7 3 4 6 7 6 6 5 5 4 3 2 4 3 2 3 5 3 4 6 6 3 2 3 3 3 3 3 2 2 2 3 3 3 4 6 9 11 13 14 16 17 18 19 22 25 26 27 26 26 26 25 24 23 21 20 20 22 23 24 26 27 27 27 25 24 23 22 21 21 22 21 20 20 19 18
2 2 3 6 5 4 6 4 7 9 5 5 3 6 6 6 6 4 5 3 1 2 4 4 1 2 6 3 1 3 3 3 5 5 5 4 4 4 3 1 2 2 2 3 3 4 7 9 11 12 14 16 17 20 22 24 25 26 26 27 27 27 26 25 23 23 23 23 24 25 27 28 28 27 27 25 25 26 25 26 27 26 26 25 24 23
0 3 5 7 5 5 4 1 6 9 4 3 5 7 5 5 5 4 4 3 2 1 4 6 4 2 6 3 3 2 4 6 5 5 5 5 5 4 4 3 2 1 1 2 3 5 7 8 10 11 13 16 17 20 22 23 24 25 26 26 27 28 27 26 25 25 26 25 25 26 27 28 27 26 26 26 27 27 27 28 28 28 28 28 28 28
2 2 2 4 3 5 4 3 2 4 3 5 6 6 6 5 4 3 2 4 2 3 5 9 9 5 4 4 4 4 3 4 5 5 5 5 5 5 4 4 4 3 2 2 3 5 7 8 10 12 14 15 16 18 21 23 24 24 25 25 27 27 25 25 25 25 26 25 25 26 25 26 25 25 25 26 27 26 26 27 27 27 27 27 27 27
5 3 2 2 2 4 6 5 2 3 3 5 4 4 3 3 4 4 4 3 1 5 3 5 5 5 5 5 3 4 3 2 5 7 10 9 8 6 5 5 5 4 4 3 3 4 6 8 9 11 13 14 15 18 20 22 23 24 24 25 26 26 25 24 24 24 25 25 25 25 24 25 25 24 25 26 26 25 25 25 25 25 25 25 25 25
3 4 3 2 1 4 6 4 3 5 4 4 4 5 3 2 3 2 3 0 3 6 3 1 1 2 7 6 4 4 4 4 5 6 10 13 11 8 7 6 5 4 4 4 4 4 5 6 8 9 11 13 15 18 19 21 22 23 23 24 25 26 24 23 23 23 24 24 24 23 23 23 23 24 24 25 25 24 24 23 23 24 24 24 24 24
3 5 1 1 2 3 7 5 2 1 1 4 5 5 4 2 1 3 3 1 4 5 2 1 2 2 5 3 2 4 5 5 6 6 9 12 12 10 8 7 6 5 5 5 4 4 5 6 7 9 11 13 15 17 19 20 21 22 22 23 25 25 23 22 22 22 22 22 22 21 21 21 21 22 22 22 22 22 22 22 22 23 22 22 22 21
2 4 2 5 2 3 8 6 5 5 4 3 3 4 4 4 4 4 3 3 4 4 2 2 2 3 3 1 2 4 3 4 3 3 7 9 8 8 7 6 6 6 5 5 4 5 7 8 9 10 12 13 16 17 18 20 20 21 22 22 23 23 21 21 21 20 20 20 19 18 18 18 19 19 20 20 20 20 20 20 20 20 20 20 19 18
3 5 6 3 1 4 7 4 5 6 2 2 2 3 2 4 4 2 3 5 3 2 3 2 3 4 4 1 1 1 2 4 4 5 8 8 7 6 6 6 6 5 5 5 5 5 8 10 10 11 13 14 16 17 18 18 18 19 20 20 21 21 20 19 19 18 18 17 17 16 16 15 16 16 16 17 17 18 18 18 18 18 18 17 17 17
2 4 5 2 2 2 5 3 3 3 3 2 2 3 4 3 5 2 2 1 3 2 4 2 3 5 1 1 3 4 4 4 3 4 7 7 7 7 7 7 6 6 6 6 6 6 9 11 12 12 13 14 15 16 17 17 17 17 18 18 19 18 18 17 17 16 16 15 14 14 14 13 13 14 14 15 15 16 16 17 17 17 17 17 17 17
4 3 5 2 2 2 2 2 3 2 4 5 2 5 3 2 4 3 1 2 1 4 4 1 5 5 2 3 3 3 0 2 3 5 6 7 8 8 8 7 7 7 6 6 6 7 11 13 14 14 14 13 14 15 15 16 15 15 15 15 16 16 15 15 14 14 13 13 13 13 13 13 13 13 13 14 14 14 14 15 15 15 15 16 16 17
4 1 6 1 3 2 2 3 2 3 3 5 3 3 3 2 1 2 2 2 3 5 4 3 5 5 5 5 1 3 8 8 7 7 7 9 10 8 8 8 8 7 6 6 6 6 10 14 15 15 14 13 13 13 14 14 14 14 13 13 14 14 13 12 11 11 11 10 11 11 12 12 12 12 13 13 13 13 13 13 14 14 14 15 16 16
3 2 4 2 1 1 3 2 3 2 1 3 1 0 1 2 3 2 2 2 3 5 5 5 5 4 5 6 7 10 12 12 11 10 10 12 11 10 10 9 9 8 7 7 6 6 10 14 16 16 16 14 13 13 13 13 13 13 13 13 13 12 11 11 10 10 9 9 9 9 10 11 12 12 13 13 12 13 13 14 14 14 15 16 16 16
2 2 3 2 2 1 1 2 5 6 4 2 2 2 2 1 1 1 2 2 3 4 4 5 6 5 4 3 7 8 8 12 15 13 12 11 11 11 11 10 9 8 7 8 7 7 11 15 16 17 16 14 13 13 13 14 14 14 13 12 12 11 11 10 10 10 9 9 8 8 10 11 11 12 12 12 12 13 14 14 15 16 16 16 17 18
2 3 3 2 1 3 4 4 4 5 4 4 5 6 6 4 2 3 5 2 2 3 4 4 6 6 3 0 2 3 4 9 13 11 10 10 12 12 10 9 8 8 8 9 7 8 12 15 17 18 17 16 15 15 15 15 15 14 14 13 12 12 11 11 10 10 9 9 8 8 9 10 12 13 13 13 13 13 14 14 15 16 16 17 18 20
2 3 2 2 3 5 5 3 1 3 2 3 3 4 4 4 4 6 8 4 1 2 1 1 4 5 1 0 2 3 5 7 9 9 9 10 11 11 9 8 8 9 9 7 7 9 12 15 17 18 19 19 18 18 18 18 17 17 16 15 14 13 12 11 10 9 8 7 6 7 8 10 12 14 15 15 15 14 14 15 15 16 17 18 20 21
2 2 2 2 2 2 4 4 3 2 3 2 2 1 3 3 3 4 6 2 1 3 1 1 5 5 1 1 2 3 3 5 7 8 9 9 8 8 9 9 9 9 8 5 6 8 11 14 16 17 19 20 21 21 21 21 19 18 17 16 15 14 13 12 10 8 6 4 3 5 6 8 11 13 15 17 17 17 16 16 17 18 19 20 22 24
2 2 3 1 2 3 4 3 3 3 0 2 3 1 2 2 3 1 1 2 1 4 5 4 8 5 2 3 3 3 3 3 4 5 6 6 6 7 8 9 8 7 6 6 6 7 9 13 15 17 19 21 23 24 23 22 21 19 18 17 17 16 14 12 10 7 5 2 1 3 5 7 9 11 14 16 18 18 18 18 19 20 21 23 25 26
3 3 4 4 6 8 6 4 4 3 1 1 2 3 4 4 5 2 1 3 4 4 6 7 8 4 3 4 4 4 4 2 2 3 2 3 4 6 7 8 7 6 7 7 6 6 7 10 14 18 20 23 24 25 24 23 21 20 19 18 17 15 14 12 10 7 4 2 2 3 5 7 9 11 13 16 18 19 20 20 20 22 23 25 26 28
3 2 4 6 9 9 6 6 5 4 3 3 5 7 6 6 6 4 2 3 5 3 5 8 3 0 2 3 4 4 1 1 4 3 4 5 7 8 8 7 6 5 6 6 5 5 6 9 14 18 21 23 24 24 24 24 23 22 21 19 17 15 13 11 9 7 4 3 3 4 5 7 9 11 13 15 18 20 21 21 21 23 24 26 28 29
4 3 6 7 9 7 3 3 4 5 5 8 8 9 8 5 5 6 5 6 5 4 8 7 4 3 6 5 5 6 4 4 5 5 6 8 8 7 6 5 6 6 6 5 6 7 8 9 12 18 21 22 22 23 23 23 24 23 21 20 18 17 14 11 10 7 5 4 4 5 6 7 9 11 13 15 18 20 21 21 22 23 25 27 28 29
4 5 5 6 7 6 2 2 4 5 4 4 6 9 7 6 7 8 10 9 6 6 10 6 5 7 8 5 7 8 7 6 6 7 7 6 6 5 5 6 8 8 6 6 7 9 9 10 12 17 20 20 21 22 22 22 24 24 23 21 19 18 16 13 11 9 7 6 6 7 8 9 10 12 14 16 19 21 22 22 23 25 27 28 29 29
3 4 3 5 5 5 3 3 3 4 4 4 7 10 6 6 8 10 10 7 5 6 10 7 5 8 8 7 7 7 6 6 6 6 5 4 5 6 7 8 8 7 7 8 9 10 10 11 14 16 17 19 21 22 22 23 24 25 25 22 20 18 16 15 14 12 9 9 9 9 9 10 11 13 15 18 21 23 23 24 25 27 29 30 31 31
2 2 3 4 3 4 2 2 2 2 3 6 10 10 4 4 8 11 7 2 2 7 10 8 8 11 9 6 5 5 5 5 6 7 6 6 7 7 7 7 7 6 7 8 9 9 8 10 12 13 16 19 22 23 24 25 25 26 25 23 22 20 18 17 16 15 13 12 11 10 10 11 12 14 17 19 22 24 24 25 27 30 31 32 32 32
3 2 2 3 3 3 1 3 3 2 2 7 14 11 6 6 10 8 4 5 9 11 9 6 7 10 8 2 3 5 6 6 7 8 7 7 6 6 7 8 7 7 8 8 8 7 7 8 11 14 17 19 22 24 26 27 27 27 27 25 24 23 21 20 19 17 15 14 12 11 11 12 13 15 18 21 23 24 25 27 29 30 32 32 33 33
4 4 3 3 4 2 2 4 3 4 3 9 12 9 10 12 12 6 4 9 12 8 6 7 8 8 5 1 3 7 6 6 7 7 7 6 5 6 7 7 7 7 7 7 7 7 8 10 13 16 19 20 23 25 27 28 28 28 28 28 26 25 23 21 20 18 16 14 12 12 12 13 15 17 20 22 24 25 26 28 29 30 31 32 32 32
4 5 4 3 3 2 2 4 5 2 6 8 3 4 10 12 12 11 11 12 9 6 6 6 5 5 4 4 7 9 7 5 6 6 7 6 5 6 7 6 7 7 6 6 6 7 9 12 14 17 19 21 24 26 27 28 29 29 28 26 25 23 21 20 19 18 16 14 13 12 13 14 16 19 21 22 23 25 26 28 29 29 30 30 31 32
5 5 3 2 2 2 2 3 4 7 8 3 1 2 5 7 8 10 10 9 8 8 8 7 7 7 7 8 8 7 5 4 4 5 6 6 6 7 6 6 7 6 6 6 5 7 10 13 15 16 18 19 22 24 26 27 28 27 26 23 21 19 20 20 20 18 15 13 13 12 13 15 18 20 21 22 23 25 26 27 28 28 29 29 30 30
7 5 2 2 3 1 2 4 8 6 2 3 4 2 3 3 3 2 5 9 10 10 9 8 10 11 9 8 6 4 3 3 3 4 6 5 5 6 6 7 7 7 7 7 8 10 12 13 14 14 15 15 16 19 22 24 24 23 22 20 18 19 20 20 18 16 14 12 12 12 14 17 19 20 21 22 24 25 26 27 27 27 28 28 29 29
6 5 2 2 3 2 3 5 5 4 5 10 8 3 4 4 5 4 4 9 9 7 8 8 10 12 9 4 3 2 1 1 3 5 5 6 6 6 6 7 7 8 9 10 10 11 11 11 11 11 11 13 14 17 19 20 19 19 18 18 18 19 19 18 16 14 12 11 11 13 16 18 19 20 22 23 24 25 25 25 26 26 26 27 29 29
2 3 4 5 4 2 3 4 4 3 8 11 6 3 3 4 6 7 4 6 7 5 9 10 10 11 6 2 2 3 3 1 3 5 6 7 6 5 6 7 8 10 12 12 12 12 11 11 10 10 11 13 15 17 18 18 17 17 18 19 19 19 17 15 13 12 11 11 12 15 17 18 19 21 22 23 23 24 24 24 25 25 24 25 27 29
3 2 1 3 1 2 3 5 6 7 8 6 5 4 2 3 6 6 2 5 7 6 9 10 9 7 6 5 6 5 5 2 5 6 6 7 7 6 7 7 9 13 14 14 13 12 11 10 9 9 11 13 15 17 16 16 17 18 19 19 18 16 14 12 11 10 11 12 14 16 16 17 19 20 21 22 22 22 23 24 24 24 24 24 25 27
3 2 0 3 4 5 5 4 4 5 5 4 5 4 1 3 7 8 1 7 6 5 7 8 8 8 8 7 6 6 5 5 6 6 6 6 7 8 9 10 12 16 17 15 13 12 11 10 10 11 12 14 16 16 15 16 17 18 18 17 15 14 12 11 11 11 12 14 15 16 16 17 18 19 19 20 21 21 22 23 23 24 24 24 25 26
1 0 1 4 6 8 8 6 3 4 5 5 5 6 6 4 6 4 6 7 4 6 6 7 9 8 7 7 6 5 6 7 6 4 3 5 5 7 11 15 17 16 16 14 13 12 12 13 12 12 13 14 16 16 17 18 18 17 17 15 14 12 11 11 12 12 14 15 15 16 16 16 16 17 17 18 19 21 22 21 22 23 23 24 25 26
2 1 1 4 5 5 6 5 3 5 5 6 4 3 5 5 2 5 7 3 5 8 7 7 8 7 7 8 8 7 7 8 6 3 3 5 6 7 11 15 15 14 13 13 12 13 14 14 13 14 14 15 17 19 19 20 19 18 17 15 13 12 12 12 13 13 14 15 15 15 15 15 15 16 17 17 18 20 22 21 20 21 22 23 25 27
5 4 2 4 4 2 2 3 3 6 5 11 11 2 1 4 6 5 3 2 5 7 7 7 8 6 7 8 8 8 8 7 6 5 5 6 6 7 10 12 14 15 15 14 14 15 16 16 16 17 17 17 19 20 21 20 19 18 16 15 13 13 13 13 13 14 14 15 15 15 14 15 15 15 16 17 17 19 21 21 20 20 21 23 25 27
4 5 4 4 4 4 4 7 5 3 4 12 12 5 6 8 5 5 5 4 4 4 5 6 7 7 7 7 7 8 8 8 7 7 6 6 7 7 9 11 14 16 17 17 17 17 18 18 18 18 18 19 20 21 21 20 19 18 16 15 14 13 14 13 14 14 14 15 15 15 14 14 15 15 16 16 17 18 20 20 20 21 22 22 24 26
6 5 5 4 3 4 6 7 3 2 5 8 7 6 9 9 6 6 6 4 4 4 5 5 6 7 7 8 8 7 7 8 9 8 7 7 7 8 10 13 16 19 20 20 18 18 19 20 19 19 19 20 21 21 20 19 18 17 16 14 14 14 14 13 14 14 15 15 15 14 14 15 15 15 15 15 16 18 19 19 21 22 22 23 24 25
4 2 3 2 2 4 4 4 2 1 3 8 8 5 6 8 6 5 6 4 5 5 5 5 6 7 8 8 8 7 7 9 9 9 8 8 7 8 11 14 17 19 19 19 19 19 19 19 18 19 20 21 21 21 20 18 17 16 15 14 14 14 14 13 14 15 15 14 14 13 13 15 15 14 15 15 15 17 18 19 20 22 23 24 24 24
3 3 3 2 2 4 4 4 5 4 5 8 9 7 6 6 5 5 6 6 6 6 6 7 7 7 7 8 8 9 10 9 9 9 8 7 8 9 10 13 16 19 20 21 21 21 20 19 19 20 21 22 22 22 20 18 16 14 13 13 14 14 14 14 14 14 14 13 13 13 13 14 15 15 15 15 15 17 18 18 19 22 24 24 24 24
3 4 4 4 5 4 4 4 3 1 1 4 6 6 7 8 7 5 6 7 6 5 6 6 6 5 5 6 9 10 10 9 10 9 8 7 8 8 10 14 17 19 19 20 20 20 20 21 22 22 23 24 24 22 20 18 15 14 14 14 14 14 14 14 14 14 14 13 13 13 13 13 14 15 16 16 16 17 18 18 19 21 23 23 23 24
2 3 4 4 5 4 4 4 3 4 5 6 7 8 9 8 7 7 7 7 6 6 6 6 6 7 7 8 8 8 9 11 10 9 9 9 8 8 12 16 19 19 19 20 20 21 22 22 23 23 23 24 23 21 20 17 15 15 14 14 14 14 13 13 13 13 14 13 13 13 13 13 14 15 16 17 18 18 19 18 18 21 24 23 21 21
4 4 3 3 4 4 4 6 5 2 4 7 8 11 12 9 7 7 7 7 7 8 8 7 8 8 9 11 10 8 8 11 11 9 9 9 9 12 16 18 18 17 18 19 20 20 21 21 22 22 22 21 21 20 19 17 15 15 15 14 14 14 13 13 14 14 14 14 13 13 13 13 14 15 16 17 19 20 21 20 18 18 21 23 21 20
6 7 6 6 6 6 6 8 7 5 5 7 8 9 9 7 8 9 9 9 10 10 9 8 9 9 9 11 13 12 10 11 13 12 9 9 14 18 19 19 18 17 19 20 20 20 20 20 20 21 21 21 21 20 18 16 15 14 14 14 13 13 13 13 14 15 14 13 13 13 12 13 14 15 16 17 18 20 22 23 22 19 17 18 19 19
Wind_Direction
106 127 193 219 215 200 201 203 206 197 144 144 141 152 204 233 264 267 258 267 151 185 272 247 243 268 266 283 7 18 64 83 92 93 86 78 73 61 61 50 37 38 20 23 31 34 36 38 42 46 49 54 60 62 64 66 66 67 69 72 72 73 78 82 85 89 90 90 90 89 87 84 80 78 77 74 71 69 66 63 60 56 51 47 45 43
87 155 223 231 216 202 202 204 209 202 121 106 144 222 265 241 256 266 255 283 184 178 264 236 191 270 267 301 6 25 70 66 83 106 101 93 86 65 61 51 35 27 12 28 33 33 36 38 42 45 47 51 55 57 61 63 65 68 71 71 72 75 78 78 78 81 82 84 89 90 89 87 82 78 76 74 71 70 69 66 62 59 55 49 46 42
95 209 238 237 189 141 145 156 170 203 159 102 122 190 265 249 277 284 276 313 25 174 259 212 186 261 274 27 27 37 75 66 63 92 98 98 91 70 61 51 39 29 16 26 27 28 33 36 41 44 45 50 54 57 61 64 67 70 71 71 74 76 78 80 81 82 82 85 89 91 91 90 86 81 79 78 75 74 72 68 64 61 57 53 51 47
186 241 243 214 131 153 216 139 128 121 113 130 144 166 245 251 310 279 286 332 0 166 266 226 231 273 275 69 49 44 78 85 72 77 76 75 85 79 72 60 47 35 22 25 25 25 31 37 40 42 44 49 53 55 58 61 64 66 69 72 75 76 78 80 83 85 88 90 91 92 92 93 91 87 86 82 75 71 69 66 62 59 56 55 55 52
224 246 221 118 133 169 216 220 149 138 233 233 203 196 225 237 217 228 280 334 337 355 0 311 307 293 254 219 114 72 76 82 76 81 74 59 68 73 66 57 45 33 25 31 30 23 29 37 40 44 48 51 53 53 56 60 63 67 71 74 76 78 78 79 82 85 91 93 94 97 96 94 90 82 76 70 64 62 61 59 57 54 52 51 51 51
248 242 115 102 121 151 197 236 187 159 193 274 234 205 211 224 226 234 325 6 359 343 347 21 321 293 291 264 162 144 96 78 61 75 86 73 60 62 61 52 34 27 29 38 42 33 34 41 46 49 51 54 55 56 61 66 70 73 75 77 79 80 79 79 79 82 86 87 85 86 83 79 74 67 62 61 60 60 60 58 56 53 49 47 46 46
256 247 148 157 150 152 196 242 221 168 145 276 244 198 201 208 217 229 177 90 93 259 293 51 194 272 304 292 176 164 123 100 87 82 98 97 77 77 73 59 34 25 26 34 41 39 41 45 49 51 53 57 60 63 70 75 77 78 79 79 80 79 79 79 79 80 80 79 77 77 75 73 72 70 67 67 68 66 66 63 58 53 48 44 42 42
222 230 168 165 140 152 197 238 224 162 129 241 237 154 160 175 193 199 163 167 220 256 320 7 123 264 287 262 196 155 124 119 149 127 128 129 115 113 98 68 50 33 29 42 39 36 44 50 55 58 62 67 70 73 77 79 80 81 82 82 81 80 80 79 79 79 78 79 79 79 79 78 77 77 76 76 75 74 73 71 66 61 56 51 47 45
190 197 205 172 146 178 209 224 190 154 149 244 202 123 132 150 158 139 127 160 303 36 306 293 138 254 272 260 177 146 151 220 205 181 179 165 156 149 136 114 57 29 23 58 61 48 51 58 65 70 73 77 80 81 82 83 84 86 86 86 85 83 82 81 82 81 81 83 84 85 85 84 83 83 83 83 80 78 77 75 72 69 65 62 59 55
34 234 210 156 156 205 214 253 179 167 194 212 129 97 72 78 89 85 104 116 41 15 240 232 177 216 272 242 159 199 255 237 199 182 194 178 174 175 160 163 151 109 55 67 77 74 70 73 77 82 83 82 84 87 89 90 90 90 90 89 87 84 84 84 85 86 86 87 87 88 89 88 88 87 86 85 81 78 76 74 72 69 67 64 61 59
314 296 194 145 172 193 147 73 164 176 166 135 107 72 46 31 43 48 56 87 52 286 221 203 188 184 263 267 191 197 228 198 163 167 193 181 179 188 181 184 187 174 162 120 88 86 87 88 89 92 91 88 90 93 95 94 94 93 92 91 89 87 87 87 86 87 86 85 85 85 86 87 86 85 84 81 78 75 74 72 70 68 66 63 61 59
329 331 265 232 169 130 95 69 35 13 66 105 89 79 73 341 7 25 356 50 139 256 235 213 196 178 233 262 228 223 245 196 179 179 181 178 182 188 185 191 198 190 180 166 131 112 104 99 97 98 97 97 98 97 97 97 98 97 96 96 94 90 89 89 87 86 85 84 84 83 83 82 81 80 79 77 75 72 71 70 68 66 63 61 59 56
302 244 265 303 195 133 106 77 25 6 34 83 96 102 100 330 349 348 307 104 224 251 253 239 156 201 242 244 212 235 272 265 241 208 180 175 177 180 185 191 192 193 189 177 168 148 127 117 110 107 106 106 104 102 103 103 103 102 101 100 97 93 92 92 90 89 87 86 84 83 82 81 79 77 75 75 73 70 69 67 65 63 59 57 55 52
289 289 306 145 266 179 146 145 170 223 143 145 148 137 130 131 168 261 268 269 267 271 270 212 180 247 275 270 192 231 267 273 264 233 185 171 172 175 180 186 186 191 194 186 182 173 155 145 134 124 120 116 113 112 111 110 109 107 105 103 101 98 97 95 93 91 90 88 86 84 82 80 78 76 74 72 70 69 67 65 63 60 58 55 53 51
207 297 218 177 228 193 175 178 161 145 152 184 166 136 149 156 171 215 221 213 255 284 292 231 180 202 232 246 223 234 271 304 297 181 153 153 164 168 172 183 187 189 194 192 186 185 174 158 145 137 131 126 123 121 119 117 115 112 109 108 106 104 102 99 97 95 92 90 88 85 83 79 76 73 71 68 66 65 64 62 61 59 56 53 51 48
166 262 253 229 258 172 182 189 123 114 127 217 119 105 170 183 164 192 203 176 179 297 285 208 212 225 195 157 345 1 32 24 38 106 132 148 161 161 176 191 191 190 193 193 188 190 182 166 155 147 140 133 129 127 125 123 122 119 116 114 112 109 108 105 102 98 95 93 90 86 82 79 76 73 69 65 61 58 57 57 56 54 51 49 46 44
137 271 283 344 339 186 184 192 128 131 181 164 129 188 224 184 134 120 271 133 103 259 261 196 241 282 308 35 10 37 54 52 72 128 146 161 167 173 191 196 193 195 195 196 195 191 183 173 166 159 149 140 136 133 131 129 127 125 123 122 119 116 115 111 107 104 100 96 92 86 80 77 74 69 63 59 55 52 50 49 48 45 42 39 36 34
143 266 277 151 186 267 218 152 70 59 139 125 178 215 199 117 97 99 248 336 42 243 266 238 233 260 259 254 343 26 173 184 181 179 170 178 185 189 199 200 201 202 201 206 202 193 186 179 173 168 160 148 142 139 136 134 132 130 128 128 125 123 121 118 115 112 107 100 92 85 80 74 68 64 57 53 50 46 44 43 41 37 33 30 27 24
128 243 282 182 165 282 6 95 60 353 102 131 195 204 119 148 200 115 177 227 235 236 269 273 246 244 224 219 204 209 215 203 194 193 189 193 194 197 203 206 209 209 208 210 204 197 192 187 182 176 170 160 152 147 143 141 140 136 134 133 131 130 128 127 127 122 115 105 93 85 80 73 67 62 55 51 47 43 42 39 36 32 28 23 20 17
122 176 277 322 186 223 35 92 179 246 47 103 150 25 72 178 185 164 174 188 215 230 249 256 248 254 243 203 177 201 206 188 184 193 198 198 196 198 202 202 206 207 206 205 200 200 196 191 188 181 177 173 167 160 152 148 147 145 144 143 141 141 139 139 139 134 126 116 102 90 80 70 63 57 51 48 45 41 38 34 27 24 21 16 11 8
116 180 236 315 343 146 167 205 190 189 184 154 164 202 233 210 161 246 231 144 163 201 223 243 246 254 264 195 179 209 207 184 185 190 194 197 198 204 206 203 204 204 205 207 201 197 195 193 191 186 184 182 176 173 167 161 156 153 154 155 154 154 154 153 149 143 134 124 108 91 77 65 56 51 44 40 37 33 30 24 18 15 11 7 3 359
169 176 185 177 150 185 223 238 207 202 195 176 191 204 201 188 177 243 248 201 162 192 192 225 256 257 264 213 191 225 205 187 189 187 186 195 201 206 211 208 206 206 210 209 201 194 192 192 192 189 188 186 183 183 181 178 174 169 166 165 165 165 162 158 152 145 136 123 106 87 73 60 47 39 32 28 25 21 19 14 9 5 0 357 354 351
139 129 173 205 199 212 247 277 240 222 171 143 208 207 180 176 174 214 236 222 171 243 144 108 272 263 252 301 243 243 223 197 188 178 180 198 205 208 213 214 214 217 217 210 199 195 193 193 194 191 191 191 189 187 187 188 187 186 182 177 177 177 171 164 159 153 146 128 102 77 60 46 36 28 22 18 14 9 6 2 358 355 351 348 345 343
100 113 182 266 299 316 315 327 344 18 86 122 253 185 148 185 184 213 229 184 159 241 171 79 261 254 294 331 269 270 237 188 181 182 185 197 205 206 212 217 220 221 220 208 197 196 194 194 194 193 194 195 194 192 193 193 193 192 192 190 190 191 187 182 177 170 164 143 88 52 38 29 23 18 14 10 6 0 356 352 349 347 344 342 341 340
197 159 141 191 295 316 322 320 318 324 49 195 245 247 190 174 106 88 211 135 215 221 166 209 252 249 302 329 343 8 52 137 186 199 190 194 207 214 218 222 225 222 216 207 194 190 192 193 192 194 196 198 198 198 197 197 198 196 196 196 197 197 195 193 191 187 185 180 43 16 12 9 6 4 3 1 358 353 347 344 341 340 339 338 337 337
182 174 150 177 221 238 238 221 223 241 226 207 242 241 229 192 162 173 188 185 229 209 172 221 254 266 318 331 336 3 48 89 230 229 215 228 228 226 227 227 226 220 215 210 198 190 194 194 194 196 199 201 202 203 201 199 198 197 198 198 196 195 196 195 197 198 206 231 301 334 342 345 346 348 349 348 348 345 340 335 333 333 334 334 333 332
113 186 197 196 219 230 224 217 198 155 155 215 233 228 221 200 184 177 146 189 216 212 218 233 236 255 279 278 281 296 357 212 242 225 216 233 232 228 231 233 229 221 218 209 191 187 196 199 200 200 202 204 205 204 203 202 200 199 201 203 199 197 197 198 201 206 220 249 280 305 316 325 329 332 335 335 336 335 331 328 326 327 328 329 328 328
113 223 220 205 234 243 201 206 195 163 188 210 216 227 222 191 169 179 205 219 191 198 244 236 160 188 243 228 224 245 233 220 237 230 219 226 230 229 227 229 229 221 212 195 183 193 202 204 206 205 205 206 205 205 206 206 206 204 206 209 207 205 207 208 210 215 227 249 265 277 289 301 309 314 320 323 326 327 325 322 322 323 324 325 325 325
137 229 218 190 237 249 165 198 199 182 215 218 212 230 221 181 176 200 226 226 185 209 254 244 164 205 241 224 207 221 218 210 222 225 220 224 232 229 218 221 227 220 201 191 197 204 207 209 209 207 207 207 205 205 207 208 207 208 212 215 213 213 216 218 221 224 232 247 253 260 272 285 296 305 312 317 320 322 321 320 321 322 323 324 324 324
160 219 188 165 227 241 203 219 197 185 235 252 241 242 220 182 198 216 231 224 184 228 260 265 243 243 247 229 214 218 212 208 230 240 230 224 229 227 221 224 228 217 199 202 209 209 211 213 211 207 205 206 206 205 206 206 207 211 216 219 219 220 222 225 227 229 233 239 243 250 266 280 292 301 307 312 316 317 318 318 319 320 321 322 322 323
205 195 130 138 207 251 221 173 142 180 234 248 254 252 207 176 224 231 236 222 203 244 253 260 269 267 260 235 216 228 216 206 242 256 245 235 232 228 228 229 226 217 211 216 218 216 218 217 212 209 206 207 209 207 207 210 213 217 221 224 226 228 229 229 229 229 228 229 232 244 262 276 287 297 303 308 312 314 315 315 317 318 319 319 320 320
191 184 87 121 200 242 179 148 149 70 356 266 262 250 195 200 236 233 203 204 222 236 245 247 254 260 263 214 178 241 235 213 236 246 244 248 235 212 217 219 214 215 218 223 224 218 218 215 210 210 211 212 211 210 212 217 220 223 226 229 232 233 231 228 226 223 221 221 229 244 261 273 285 294 301 306 309 311 313 314 315 317 317 317 318 318
160 155 129 156 200 212 118 134 123 56 340 266 257 229 195 216 241 243 227 228 224 216 218 228 237 250 261 171 210 250 242 220 234 236 233 243 225 202 211 210 208 216 218 219 221 216 214 216 215 216 217 218 216 216 220 223 225 228 232 234 235 234 230 225 219 216 216 220 231 246 259 272 284 292 298 302 305 307 309 311 313 314 315 315 316 316
157 157 162 181 190 185 146 113 106 152 249 255 261 176 189 209 225 232 240 241 224 197 206 231 250 258 248 224 233 244 239 225 231 229 223 219 200 201 216 214 211 219 223 221 220 219 220 223 224 226 227 228 226 226 228 230 232 235 237 237 237 235 228 220 212 211 215 222 234 248 261 274 284 291 295 299 302 303 306 309 310 312 313 313 313 314
165 160 161 151 128 145 131 118 174 222 237 250 357 196 194 193 203 223 250 258 239 223 224 237 253 250 234 228 233 243 256 256 245 239 233 218 197 191 198 212 216 214 221 224 218 223 228 228 231 234 235 238 237 234 234 237 238 238 238 238 237 230 219 211 207 210 216 226 240 253 267 279 287 292 295 298 301 303 306 309 309 310 311 311 312 312
161 158 143 129 132 120 124 185 220 244 298 288 255 196 129 125 160 214 283 272 246 227 212 216 239 245 238 238 245 254 271 288 285 259 244 229 213 191 183 199 205 199 206 212 212 222 230 230 233 239 242 248 248 244 243 244 241 238 236 233 226 215 207 204 206 211 220 232 247 262 276 285 289 293 296 299 302 305 307 308 308 309 311 310 309 310
152 151 140 178 190 164 166 215 248 334 310 271 255 193 162 174 164 168 245 264 253 219 184 191 229 242 242 248 263 242 189 5 318 286 261 239 221 202 199 202 195 197 210 214 214 220 225 227 231 239 247 254 255 253 252 250 243 234 225 217 209 203 201 203 208 215 227 241 258 274 283 288 291 294 297 300 303 305 306 307 307 308 309 309 308 309
129 154 187 213 215 123 145 230 264 274 258 256 242 194 192 170 153 155 197 269 273 219 182 187 214 232 231 196 205 182 126 103 281 275 263 245 223 205 223 230 214 207 209 210 213 217 219 223 231 240 248 252 252 252 252 248 238 223 212 205 201 201 202 206 214 225 240 256 271 279 283 287 291 295 297 299 302 304 304 304 304 306 308 308 308 309
48 43 176 205 218 124 167 222 233 235 251 250 221 227 236 144 135 111 71 285 265 216 189 188 198 209 198 179 172 150 129 178 256 261 252 240 223 203 211 227 225 217 213 212 217 222 223 226 233 241 245 245 245 245 242 234 222 210 203 200 200 203 207 214 226 241 256 268 275 278 281 286 289 292 296 298 300 301 301 302 303 305 307 307 307 308
55 32 115 192 212 213 213 230 233 240 261 242 209 213 201 138 110 91 16 270 250 210 191 179 185 200 192 173 159 152 166 200 232 247 238 222 216 207 202 207 214 216 217 219 222 223 223 225 228 234 238 239 236 231 223 215 207 202 201 201 203 209 217 228 242 255 264 269 272 275 280 284 287 290 293 296 298 299 299 300 303 305 307 307 308 308
65 353 211 215 226 227 227 240 261 263 254 228 201 176 154 110 78 116 227 241 204 197 203 185 192 200 177 160 166 184 208 215 218 230 202 174 194 215 215 216 218 219 222 224 223 220 220 223 227 231 237 235 227 218 211 206 202 201 203 206 211 220 230 241 252 259 264 268 272 276 282 285 287 290 292 294 296 296 296 299 302 303 306 307 307 307
160 152 245 227 223 226 230 238 278 279 236 176 162 170 146 125 143 216 225 207 164 186 202 201 208 198 169 175 191 204 225 231 222 212 176 174 194 212 217 221 226 230 229 223 219 218 217 218 221 224 228 226 218 212 210 206 203 204 207 212 220 230 239 247 254 260 265 270 276 282 287 289 289 291 292 293 295 295 296 299 302 303 305 307 306 306
166 153 201 221 191 167 217 219 245 274 224 140 123 95 208 188 204 206 189 178 181 181 184 201 216 201 179 194 212 219 235 245 237 228 219 212 218 225 226 226 228 233 230 222 220 221 217 214 217 220 221 216 210 209 209 207 206 207 211 217 225 234 243 249 255 262 268 275 280 284 287 288 289 291 293 295 296 296 297 300 303 304 305 305 305 304
188 167 187 220 187 144 186 213 209 223 177 146 139 162 212 209 191 153 153 188 205 187 179 198 220 211 192 200 219 226 236 248 245 237 229 227 229 232 237 234 231 234 234 228 226 224 216 214 216 215 212 209 206 207 208 209 209 209 213 221 229 237 244 251 257 265 270 274 278 281 284 287 290 292 294 296 297 296 298 302 304 304 304 304 304 301
230 195 171 194 199 174 193 217 212 118 153 175 176 186 205 212 201 159 161 182 199 194 183 191 218 218 200 204 219 226 231 237 238 232 226 228 229 228 234 238 236 235 235 233 231 225 217 216 215 209 206 206 206 208 209 211 212 212 216 224 233 240 246 253 259 265 269 272 276 281 285 286 289 292 293 296 297 297 300 303 303 302 301 302 300 297
248 181 140 148 243 256 239 208 178 115 173 199 211 213 207 218 213 178 180 210 215 196 181 186 206 209 199 200 211 224 232 233 234 235 230 230 235 233 233 240 243 239 235 233 231 223 215 213 211 207 204 205 206 209 211 212 214 217 222 230 237 243 249 255 260 264 267 272 277 282 286 287 289 292 294 296 298 298 300 301 300 298 298 298 297 295
272 157 151 182 218 245 251 196 171 176 189 199 215 232 239 242 226 182 191 222 220 198 194 202 212 214 202 194 201 222 232 229 228 237 238 232 237 239 233 235 241 239 233 230 228 220 208 204 205 205 205 206 208 210 211 213 215 221 229 235 241 246 251 255 259 263 267 272 278 282 284 287 292 295 297 299 301 300 300 299 297 294 293 293 294 294
256 154 160 218 213 206 232 221 174 116 274 229 221 231 241 241 225 195 206 228 229 223 222 216 211 212 208 202 207 221 234 234 227 231 238 238 238 241 238 236 237 237 233 228 222 213 204 204 207 208 208 209 209 209 211 214 219 226 234 240 244 247 252 255 258 262 267 272 277 281 284 288 293 298 300 302 302 300 299 299 297 293 291 292 293 293
152 159 175 206 214 227 247 221 117 39 321 272 239 234 238 234 220 211 219 225 230 244 249 239 222 215 218 225 221 215 227 240 235 226 230 240 242 241 242 241 239 236 229 222 215 209 207 210 212 211 211 211 210 210 213 217 224 232 238 243 247 249 251 254 256 259 265 270 275 280 285 289 294 299 301 302 302 301 299 299 298 295 294 296 297 293
154 200 180 162 205 234 229 197 165 164 258 245 230 230 231 224 215 222 226 221 222 230 236 243 248 241 233 236 232 214 220 241 243 231 229 238 242 242 243 242 238 232 225 216 210 208 209 213 214 212 211 210 209 212 216 221 227 236 241 245 248 250 251 251 253 257 262 268 274 280 286 291 296 299 300 301 303 303 302 302 301 295 290 291 291 286
193 202 180 185 222 227 209 202 195 192 223 241 237 228 219 206 206 220 230 231 232 232 226 229 244 251 249 243 233 218 217 237 243 236 233 240 243 245 246 242 234 225 215 207 202 201 204 207 209 208 207 208 210 213 218 224 229 236 243 247 248 248 248 248 251 256 262 268 275 282 289 294 297 299 300 301 302 303 304 305 307 305 298 294 291 288
Height
824 827 830 825 823 824 823 823 820 820 826 827 830 834 835 836 834 830 826 822 823 826 824 822 824 822 815 814 824 831 830 833 838 839 842 844 844 844 844 844 844 844 844 842 841 839 837 836 834 831 830 828 825 823 821 820 819 819 818 817 817 818 818 817 818 818 817 816 816 816 816 817 818 818 818 819 820 820 822 823 823 824 825 825 825 826
826 830 826 816 816 819 820 823 823 824 828 830 832 834 835 838 835 828 825 823 824 827 824 823 825 820 812 817 830 834 830 835 839 841 844 845 845 846 845 845 845 845 845 843 842 841 839 838 836 834 833 830 827 825 824 823 822 821 820 820 820 820 820 819 820 820 820 820 819 818 818 819 819 819 820 820 821 822 823 823 824 825 826 826 827 827
832 830 820 813 818 821 822 825 827 828 830 832 835 837 836 836 834 827 823 824 825 825 823 825 825 816 813 825 835 837 836 841 842 841 844 845 846 847 846 847 846 846 846 844 843 842 841 840 838 837 836 833 831 829 827 826 825 824 822 822 822 822 822 822 822 822 823 823 823 822 821 820 820 821 821 822 823 824 824 824 826 826 827 828 828 828
833 824 814 815 820 821 823 826 828 830 832 833 834 836 835 834 835 828 822 823 823 825 824 824 825 818 818 829 839 842 842 844 845 844 846 847 847 848 848 848 848 848 847 846 845 843 842 841 840 839 838 836 834 831 830 828 827 826 825 825 824 825 825 825 825 825 826 826 826 825 824 823 822 823 823 822 823 824 825 826 827 828 829 829 830 830
822 814 812 817 820 821 822 824 829 832 832 832 831 832 831 829 831 828 826 825 823 826 827 824 825 818 813 819 831 842 845 844 846 846 846 848 848 849 849 849 849 850 849 847 846 845 844 842 841 841 839 837 835 833 832 831 830 829 828 827 827 827 827 828 828 828 829 828 828 827 826 825 824 823 823 822 823 825 826 827 828 829 831 831 831 832
819 813 814 817 821 823 822 823 826 829 831 830 824 824 825 823 825 827 829 829 827 827 829 829 825 816 810 813 827 841 844 845 847 847 847 848 849 849 849 850 850 850 849 848 847 846 845 844 842 841 839 838 837 836 836 834 833 832 831 830 829 829 830 830 830 831 831 831 831 830 828 828 826 825 825 826 827 827 828 829 830 831 832 832 833 833
818 814 814 816 819 822 823 824 824 825 829 829 821 818 820 822 825 828 829 830 830 828 831 833 827 820 812 810 826 840 841 845 848 847 848 848 849 849 849 850 851 851 850 849 848 847 846 845 843 842 841 841 840 840 839 837 835 834 833 833 832 832 832 832 833 833 833 832 833 832 832 831 830 830 831 832 831 830 831 831 832 833 833 834 834 834
815 814 817 818 820 823 824 823 822 823 825 824 821 819 818 820 824 827 827 829 830 830 832 829 826 827 817 811 829 837 835 843 848 847 848 848 848 849 850 850 850 851 850 850 849 848 847 846 845 844 844 843 843 842 841 838 837 836 835 835 834 834 834 835 835 835 834 834 835 835 835 835 834 834 835 835 834 834 833 833 833 834 835 835 835 835
815 814 816 818 821 825 821 817 819 821 820 820 824 825 822 822 825 827 826 829 835 837 833 827 827 831 819 817 836 836 826 831 842 846 847 847 849 849 849 850 850 851 850 850 850 849 848 847 846 846 846 845 844 843 841 840 839 838 838 837 836 837 837 838 838 837 837 837 837 838 837 837 838 838 838 837 837 836 835 835 835 836 836 837 837 837
817 817 817 817 819 819 816 818 821 817 816 821 828 828 826 828 830 829 828 828 834 837 833 826 827 829 816 814 831 833 819 819 834 846 846 846 849 849 849 850 850 851 850 850 850 849 849 848 848 847 846 846 845 844 843 842 842 841 840 839 838 839 840 841 841 841 841 841 841 841 841 841 842 841 841 839 838 838 838 837 837 837 837 837 838 838
817 819 818 815 815 814 815 824 828 823 821 824 824 822 824 829 829 832 834 830 831 832 827 820 821 825 819 812 819 825 820 820 830 842 845 847 849 848 849 850 849 850 850 850 850 850 849 848 848 847 846 847 846 845 844 843 843 842 841 840 839 841 842 843 844 843 843 844 844 845 845 845 845 844 843 841 840 840 839 839 839 839 839 838 838 838
818 817 816 812 814 817 816 821 828 829 828 824 820 819 823 828 829 832 835 834 834 828 824 825 827 829 822 809 809 817 825 830 829 832 839 845 847 847 848 848 849 850 850 850 850 849 849 848 848 848 847 847 847 846 845 845 845 844 843 842 841 843 844 845 846 845 846 846 847 848 848 848 848 847 845 843 843 842 841 841 841 840 840 839 839 839
816 813 814 812 814 815 812 818 826 828 827 824 821 823 828 834 836 834 834 839 837 828 832 837 833 829 818 804 807 816 826 834 832 830 835 839 842 845 846 846 847 849 849 849 849 848 848 848 848 848 847 847 847 846 846 846 846 845 844 844 843 844 846 846 847 847 848 849 849 851 851 850 850 849 848 846 845 845 843 843 842 841 841 840 840 840
814 813 815 813 811 809 807 814 820 822 825 824 821 823 828 837 842 838 839 845 837 827 837 842 833 827 811 803 821 830 831 837 835 832 833 835 839 841 843 845 845 847 848 848 848 848 847 847 847 847 847 847 847 847 847 847 846 846 845 845 844 846 847 848 849 849 850 851 851 852 852 852 852 851 850 849 848 847 845 844 843 843 843 842 842 842
815 809 808 808 807 806 804 806 810 814 822 825 823 823 824 827 831 830 830 832 827 823 834 840 830 816 801 809 834 839 836 838 835 832 833 835 839 840 842 844 844 845 846 846 847 847 847 847 847 847 847 847 847 847 847 847 847 846 846 846 845 847 848 849 850 851 851 852 853 854 854 853 853 853 852 851 850 849 847 846 845 844 844 844 844 844
818 806 801 806 808 806 804 805 808 812 819 827 830 826 822 818 816 821 827 828 829 828 830 832 821 808 808 826 840 838 836 839 836 835 835 836 840 841 842 843 842 844 845 845 846 845 846 847 846 847 847 847 847 847 847 847 847 847 846 847 847 848 849 850 851 852 853 854 854 854 855 854 854 854 853 852 851 849 847 846 846 845 845 846 846 845
815 807 804 809 808 807 807 806 808 809 812 826 830 821 821 820 812 819 830 835 838 833 825 822 814 806 811 824 837 838 836 838 839 838 838 838 841 841 841 841 842 843 843 843 844 844 845 845 846 847 847 847 847 847 847 847 847 848 847 848 848 849 850 851 852 853 853 854 855 855 855 855 855 854 853 852 851 849 848 847 846 846 847 847 847 845
804 803 804 806 803 808 814 810 808 810 811 820 823 815 819 824 818 821 828 833 840 835 824 816 809 805 801 808 832 841 835 837 841 840 840 840 841 840 839 840 841 841 841 842 842 843 844 844 845 846 846 846 847 846 847 847 848 848 848 849 849 850 851 852 852 853 854 855 855 855 856 855 855 854 853 852 851 850 849 848 848 848 848 847 846 844
800 801 804 808 806 808 814 810 807 812 812 813 815 813 817 820 820 824 827 828 830 828 820 809 804 804 797 800 817 822 823 833 838 840 840 838 839 839 838 838 839 840 840 840 841 842 842 843 843 844 845 846 846 847 847 847 848 848 849 850 850 851 852 853 854 854 855 855 855 856 856 856 855 854 853 852 851 851 850 849 849 849 848 846 844 843
798 800 804 810 810 808 810 809 807 810 812 813 814 816 816 816 817 820 822 819 817 819 817 808 803 797 791 794 796 794 808 827 833 836 837 834 835 835 833 835 836 836 837 838 839 840 840 841 842 843 844 845 845 847 847 847 848 849 850 851 851 852 853 854 854 855 855 855 855 856 856 855 855 854 853 853 852 851 851 850 849 848 846 845 844 843
797 801 805 810 813 811 807 806 805 804 807 811 814 817 816 816 818 818 817 813 811 814 812 811 806 791 788 801 796 789 805 820 824 828 830 831 832 831 830 831 831 833 835 836 837 838 838 840 841 842 843 844 845 846 847 847 849 849 850 851 852 853 854 854 855 855 855 856 856 856 855 855 854 854 853 853 852 851 850 849 848 846 845 844 843 843
795 799 803 807 812 808 802 804 807 803 802 803 806 808 808 811 816 818 817 811 810 811 806 807 805 788 792 812 808 802 811 816 818 822 825 828 828 827 828 829 830 832 833 833 834 835 837 838 839 841 842 844 844 845 847 847 848 849 850 851 852 853 854 854 855 855 855 855 855 855 854 854 853 853 852 851 850 849 848 847 846 845 845 844 843 843
794 797 799 802 806 805 803 808 813 809 803 803 805 804 805 808 808 809 809 806 809 813 808 810 807 793 802 819 816 813 815 814 818 821 823 825 824 825 828 828 831 831 830 832 833 834 836 837 839 841 841 843 844 844 846 847 848 849 850 851 852 852 853 854 854 855 854 854 854 853 853 852 852 851 851 850 849 848 848 847 846 845 844 843 843 842
794 795 798 800 801 805 807 807 809 810 807 806 806 807 809 807 805 806 807 807 809 807 806 813 807 793 804 818 817 817 816 814 818 818 819 822 822 824 827 827 829 829 829 832 833 834 836 836 838 840 840 841 842 843 845 846 847 848 849 850 851 851 852 853 853 853 853 853 852 852 851 851 850 850 849 849 848 847 847 846 845 844 843 842 841 840
790 793 798 803 805 808 810 808 807 807 808 807 807 810 812 808 810 815 814 815 815 805 801 809 801 789 802 815 814 816 817 815 819 820 819 822 823 824 826 825 826 827 829 831 832 834 835 835 837 838 838 840 840 842 843 844 846 847 848 849 849 850 851 851 851 852 851 851 850 850 850 849 849 849 848 848 847 846 845 844 843 843 842 840 840 839
787 792 794 800 805 805 804 803 805 804 805 809 810 810 811 810 810 812 810 813 815 805 799 800 793 791 803 809 806 810 816 816 817 820 822 823 825 825 824 824 825 826 828 829 831 833 833 834 835 835 837 838 838 840 841 843 845 846 847 848 848 849 849 849 850 849 849 849 849 848 848 848 847 847 847 846 846 845 844 843 842 841 841 839 838 837
789 793 791 791 793 793 792 794 802 804 800 803 805 802 806 812 811 809 813 813 809 807 803 796 794 797 800 802 803 807 812 813 813 816 820 821 821 822 821 822 824 825 827 828 830 832 833 834 833 833 834 835 836 838 839 841 843 844 845 846 846 847 847 847 847 847 847 847 847 847 847 846 846 846 846 845 844 844 843 842 842 840 839 838 837 836
790 792 790 789 789 790 791 794 802 805 798 797 799 798 803 814 815 812 813 806 801 807 804 795 799 803 796 797 804 803 806 810 809 811 815 816 816 818 820 822 823 824 826 828 830 831 831 831 831 831 832 833 835 837 838 840 841 842 843 843 844 845 845 845 845 845 845 845 845 846 845 845 845 845 845 844 843 843 842 841 840 839 838 837 835 834
788 789 788 791 794 794 798 801 803 806 803 801 800 797 801 813 816 811 809 804 802 805 798 792 800 803 795 796 801 800 802 805 805 807 809 811 814 816 818 819 820 821 824 826 827 827 828 828 828 828 830 831 833 834 836 837 838 840 841 841 842 842 842 842 843 842 843 843 843 844 843 844 844 843 843 843 841 841 840 839 838 837 836 835 833 832
788 788 789 794 796 798 803 807 808 809 809 806 803 800 805 814 815 809 806 807 809 808 799 797 805 804 798 799 801 801 804 805 805 807 809 811 812 813 814 815 816 819 822 822 823 823 824 824 825 826 828 829 831 832 833 835 836 837 838 838 839 839 839 840 840 840 841 841 842 842 841 842 842 841 841 841 839 839 837 836 835 834 833 831 830 829
789 792 796 797 798 800 806 812 815 817 816 812 807 806 812 817 815 812 813 814 815 813 807 808 813 809 801 800 803 804 805 807 806 806 808 810 810 810 812 814 815 817 819 819 819 820 821 822 824 825 826 826 828 829 831 832 833 834 835 836 836 836 837 837 838 839 839 839 840 840 840 840 840 840 839 838 838 837 835 834 833 831 830 828 827 826
789 796 800 800 799 800 809 818 818 818 822 819 811 811 817 815 807 808 814 813 809 807 809 815 817 808 799 800 805 804 803 806 807 806 806 807 810 812 811 811 813 814 814 816 817 819 820 821 822 822 823 824 825 827 828 829 830 831 832 832 833 833 834 835 836 837 837 837 837 837 838 838 838 838 837 836 836 834 833 832 830 829 828 826 824 823
790 793 797 800 799 802 816 823 819 819 820 810 798 800 809 810 805 806 809 806 802 803 808 810 806 799 797 802 804 801 802 806 806 805 805 805 808 812 810 809 810 811 812 814 816 817 818 818 819 820 821 822 823 824 825 826 827 828 828 829 830 831 832 832 833 834 834 835 835 835 836 836 835 835 835 834 834 832 831 830 828 827 825 824 822 821
792 790 794 797 797 808 824 825 821 820 810 794 788 792 796 800 802 804 802 799 799 801 801 800 798 798 799 800 798 797 799 803 804 804 804 804 805 807 808 809 809 809 812 814 814 816 816 816 817 818 819 820 821 821 823 823 824 825 826 827 828 828 829 830 831 832 832 832 833 833 833 833 833 833 832 832 831 830 829 828 826 825 823 822 820 818
792 792 797 800 804 819 831 824 816 808 793 788 796 798 795 796 798 799 799 797 798 800 798 798 798 798 798 797 796 798 800 803 805 804 803 804 803 802 804 807 808 809 811 812 813 813 814 814 815 816 816 817 818 819 820 821 822 823 823 824 825 826 827 827 828 829 830 830 830 830 830 830 830 830 830 829 828 827 826 825 823 822 821 819 818 816
789 793 797 803 811 824 830 819 801 790 785 789 796 800 802 803 800 802 802 796 793 796 799 800 797 793 795 798 800 802 804 806 806 803 803 804 804 803 802 803 806 808 808 809 810 811 811 812 813 813 814 815 816 817 817 818 819 820 821 822 822 823 824 825 826 827 827 828 828 828 828 828 828 827 827 826 825 824 823 822 821 820 818 817 815 814
787 789 792 798 803 808 817 812 796 791 792 785 783 791 796 794 792 797 798 791 785 790 797 799 795 791 795 800 802 805 808 807 805 802 802 803 803 803 803 802 804 806 806 807 808 808 809 810 811 812 813 813 814 815 815 815 816 817 818 819 820 821 822 823 824 824 825 825 825 825 825 825 825 825 824 824 823 822 821 820 818 817 816 814 812 811
788 788 786 789 793 798 809 810 803 803 795 778 776 784 788 788 789 790 794 791 785 788 794 792 790 791 796 800 804 807 807 804 801 799 798 800 801 803 803 803 803 804 804 805 806 807 808 808 809 810 811 812 812 813 813 814 814 815 816 817 818 819 820 821 821 822 822 823 823 823 823 824 823 823 822 821 820 819 818 817 816 815 814 812 810 808
794 793 788 790 795 800 805 805 801 796 784 773 777 785 790 794 791 790 801 798 784 785 793 790 788 792 794 796 801 804 803 801 799 796 796 797 799 800 801 801 802 802 803 804 804 805 806 806 807 808 809 810 810 810 811 812 812 814 814 815 816 817 818 819 819 820 820 820 821 822 822 822 822 821 820 819 818 817 816 814 813 812 811 810 808 806
801 799 797 798 798 796 799 802 798 789 780 777 782 788 796 797 790 794 805 796 781 786 795 791 787 789 790 795 801 800 797 797 796 793 793 795 796 798 799 799 800 800 800 801 802 803 804 804 805 806 806 807 808 808 810 810 811 812 813 814 815 815 816 817 817 818 818 819 819 820 820 820 820 819 819 817 816 815 813 812 811 810 808 807 805 803
808 806 803 800 799 798 798 801 799 790 782 784 787 790 794 795 794 796 792 781 778 788 794 790 785 785 789 796 798 795 791 791 791 790 792 795 795 796 797 797 797 798 798 799 800 801 801 802 802 803 804 805 806 807 808 809 810 811 812 812 813 814 815 815 815 816 817 817 818 818 818 818 818 817 816 815 814 812 811 810 809 807 806 804 802 801
806 809 809 802 801 803 799 802 807 794 779 780 789 791 791 791 791 786 779 777 780 783 788 791 786 785 790 792 791 790 788 788 790 791 792 794 793 794 795 795 796 797 797 797 798 798 799 800 800 801 801 802 803 804 805 807 808 809 810 811 811 812 813 813 813 814 815 815 816 816 816 816 815 815 814 813 811 809 808 807 806 805 803 802 800 798
789 800 809 800 795 802 805 809 813 795 772 773 786 791 790 784 777 773 775 781 782 778 783 788 786 786 789 788 788 790 788 787 790 791 791 793 792 792 793 793 794 795 794 795 796 796 797 797 797 798 799 800 801 802 803 804 805 806 808 808 809 810 810 811 812 812 812 813 813 813 813 813 812 812 811 810 809 807 805 804 803 802 801 800 797 795
776 785 797 789 785 799 805 797 787 775 767 770 774 777 777 773 769 769 771 775 780 781 782 782 782 786 788 785 786 789 788 789 789 788 789 791 790 791 791 791 791 792 791 792 793 793 794 794 795 796 797 798 799 800 801 802 803 804 805 806 807 807 808 809 810 810 810 811 811 811 811 810 810 809 808 807 806 804 802 801 800 799 798 797 795 793
765 770 777 773 773 782 783 771 764 765 771 771 766 765 768 767 769 772 770 769 774 779 781 781 780 783 786 786 785 786 786 787 786 785 787 787 786 788 788 787 788 788 788 789 790 790 791 791 792 794 795 796 797 798 799 800 801 802 803 804 804 805 806 807 807 807 808 808 808 808 808 807 807 806 805 804 803 801 800 799 797 796 795 794 793 791
765 770 771 768 767 768 766 764 767 769 771 770 766 766 767 767 768 772 772 771 772 774 778 779 776 777 782 784 784 784 784 784 783 783 783 783 784 785 784 784 785 785 785 786 787 787 788 789 791 792 793 794 795 796 797 799 799 800 801 801 802 803 803 804 805 805 806 806 805 806 805 804 804 803 802 801 800 798 797 796 795 793 792 791 790 788
767 771 770 767 766 763 760 762 766 766 767 769 768 766 767 768 769 771 772 771 771 772 774 775 774 775 778 780 781 781 779 779 780 780 780 781 781 781 781 781 781 781 782 783 783 784 786 787 788 789 790 791 793 794 795 796 797 798 799 799 800 801 801 802 802 802 803 803 803 803 802 801 801 800 799 798 797 796 795 793 792 791 789 788 786 785
761 767 769 767 765 762 758 761 766 767 768 769 768 767 766 765 767 770 771 770 770 771 772 772 773 774 775 776 778 777 776 777 778 777 777 778 777 777 778 778 777 777 778 779 780 782 783 784 785 786 787 789 790 791 793 794 795 796 797 797 798 798 799 800 800 800 800 800 800 800 800 799 798 797 796 795 794 793 791 790 790 788 785 785 784 782
759 763 764 763 763 762 759 761 767 769 767 766 766 766 764 762 764 767 768 769 769 770 770 771 772 772 772 773 774 774 775 774 773 773 774 774 773 773 774 773 773 774 775 776 777 778 779 781 782 783 785 786 788 790 791 792 794 794 795 795 796 796 796 797 797 797 798 797 797 797 796 796 795 794 793 792 790 789 788 787 787 784 781 781 781 779
759 758 760 761 761 761 759 756 759 762 761 758 758 758 759 761 763 764 765 767 768 767 767 768 768 769 770 770 770 772 773 770 769 770 771 770 769 769 769 769 770 771 772 773 775 776 777 778 780 781 783 785 786 788 789 790 792 792 792 793 793 793 794 794 794 795 795 795 795 794 794 793 792 792 791 789 787 786 784 783 783 782 780 778 777 777
750 748 751 753 752 752 752 749 751 754 753 751 751 753 755 758 761 762 762 762 762 762 763 765 765 765 766 766 766 768 768 767 765 766 767 767 766 765 765 766 767 768 769 770 771 773 775 776 777 779 781 782 783 785 787 788 789 790 790 791 791 791 792 792 792 792 792 792 792 792 791 791 790 789 788 787 785 784 781 779 778 778 777 776 774 773